Wind_Speed
37 36 36 39 44 47 57 51 53 42 43 41 41 48 48 50 53 44 42 43 49 57 62 65 66 65 66 66 66 65 64 62 62 62 60 60 60 59 59 58 58 58 58 58 59 60 62 65 72
36 34 31 26 33 38 45 46 48 41 35 45 48 52 56 56 54 50 45 42 42 47 55 60 62 65 68 68 69 70 69 70 68 66 66 65 64 64 63 63 62 61 61 62 62 62 63 64 63
38 37 41 45 43 40 47 48 53 51 54 49 49 53 56 61 59 54 47 41 44 46 51 55 60 65 67 69 67 69 73 74 73 71 70 70 70 71 71 69 68 66 66 66 65 65 65 65 64
42 45 46 50 49 50 52 47 39 47 55 51 47 51 55 60 58 55 50 44 52 55 57 62 65 65 67 70 70 71 70 70 72 75 79 79 77 75 77 77 76 75 74 73 74 74 72 71 69
41 39 34 30 36 50 52 51 48 55 61 48 43 52 53 60 55 56 55 56 57 58 57 56 57 61 67 68 71 74 75 75 76 75 74 75 79 81 82 82 81 82 82 82 81 82 81 80 78
41 36 40 44 47 48 42 46 52 53 61 58 46 48 59 63 61 60 55 59 60 59 61 64 65 66 65 67 70 71 75 77 78 78 79 79 79 79 80 81 82 83 87 88 87 87 86 86 86
41 42 49 43 46 53 48 48 51 57 64 67 58 55 53 57 60 54 55 60 65 68 70 70 70 70 71 74 74 75 78 78 80 81 80 80 82 83 83 84 84 86 86 85 85 88 90 93 92
51 47 53 59 63 56 51 54 63 63 67 63 66 66 67 70 66 66 65 68 74 76 78 77 77 77 79 79 81 83 81 75 75 78 83 88 88 87 87 87 87 86 86 86 87 89 89 89 89
42 47 54 58 48 57 58 63 65 60 63 59 58 58 65 70 72 75 73 76 79 75 72 72 72 72 74 74 74 74 73 71 68 68 70 71 74 77 81 88 93 91 89 90 91 91 90 92 92
48 48 56 62 63 60 68 71 74 71 70 60 58 58 65 72 74 72 72 71 70 69 69 68 68 68 69 69 68 67 67 66 66 67 68 69 70 72 70 71 78 85 90 96 97 98 97 97 95
48 60 57 66 63 67 72 76 68 70 65 63 54 59 67 71 69 67 67 72 71 68 66 69 68 67 67 66 66 66 67 68 68 68 67 68 68 69 69 70 72 74 76 79 82 84 92 99 102
57 58 60 66 65 73 76 71 63 63 63 66 66 60 63 68 70 70 70 69 67 66 64 67 67 62 65 64 64 64 64 63 64 65 65 65 67 68 67 68 70 73 75 78 80 81 81 84 85
62 61 64 68 72 74 75 66 57 59 64 69 71 69 67 68 71 70 66 64 64 61 60 65 67 59 61 62 62 64 66 67 69 70 71 72 71 72 73 73 73 75 76 77 79 80 81 82 83
67 66 69 78 79 70 68 61 57 55 63 65 68 69 67 68 68 68 62 61 60 59 59 65 73 63 65 66 68 69 71 74 75 77 79 79 78 77 79 80 81 81 81 81 81 82 82 83 84
68 71 80 78 71 67 68 62 61 54 56 60 62 64 70 68 66 68 66 64 62 61 63 69 73 72 72 72 74 75 77 79 80 78 78 80 78 76 76 78 80 82 84 85 85 85 85 85 85
68 82 81 75 69 66 66 60 55 52 55 61 61 56 59 67 67 70 72 72 68 68 69 71 72 75 76 76 77 76 73 72 71 69 68 67 69 69 69 70 73 75 77 79 82 85 87 87 87
77 78 78 69 67 69 69 59 52 49 56 62 65 64 63 64 69 72 73 72 71 69 70 69 66 69 68 67 67 67 65 66 66 66 66 65 65 65 67 69 70 70 70 72 74 76 80 83 85
80 73 72 79 68 68 70 63 52 53 58 58 64 64 64 62 63 68 70 68 69 68 68 67 64 63 61 60 61 62 62 63 59 56 53 52 51 51 53 57 61 62 60 61 65 69 72 74 77
76 71 68 73 70 72 71 67 59 58 60 58 62 63 64 63 60 62 64 62 60 60 57 57 56 57 57 57 53 47 44 45 48 50 52 54 54 53 52 54 56 58 59 57 55 58 62 65 70
70 66 65 68 68 71 69 68 64 62 62 59 60 61 58 54 57 56 54 53 53 51 52 55 54 49 42 40 42 44 46 46 47 45 43 43 41 41 41 41 42 44 47 49 52 54 57 60 62
67 62 61 60 65 74 73 68 65 68 67 65 60 56 51 50 47 47 50 52 54 52 45 38 35 37 40 42 41 39 35 32 32 29 28 28 28 28 26 27 29 30 32 34 36 41 48 54 59
62 62 59 57 58 59 78 75 73 70 65 60 58 51 48 45 45 48 48 47 38 33 34 37 39 38 36 32 27 24 22 23 23 25 25 25 26 26 28 29 29 29 29 29 29 29 34 40 44
61 60 60 59 58 61 68 69 65 65 60 56 52 46 43 42 43 40 35 31 33 37 38 36 33 27 23 20 17 19 23 24 27 30 30 31 34 35 37 34 34 34 36 35 31 31 32 33 35
61 58 55 56 58 62 63 60 55 53 44 40 41 40 40 38 29 27 28 31 34 32 28 24 20 19 19 18 19 22 25 28 30 34 37 38 40 41 40 40 40 40 40 40 40 37 35 36 37
60 59 57 57 60 57 54 49 41 34 32 36 34 30 24 22 24 27 29 30 25 21 17 16 17 20 21 23 26 30 33 35 37 40 42 45 46 47 47 47 46 46 47 47 46 45 42 41 40
59 57 54 55 54 50 46 40 32 26 28 27 22 22 25 27 27 27 25 21 16 15 17 17 19 21 25 28 31 34 37 40 43 46 49 50 52 53 54 54 54 53 50 51 51 51 48 44 43
60 57 55 54 52 45 41 34 29 24 23 27 29 31 30 25 20 15 13 14 16 16 17 20 23 27 32 36 40 44 48 51 53 54 54 55 55 56 58 60 61 60 59 56 56 57 56 53 46
54 54 55 53 50 42 36 24 23 27 31 33 33 27 20 18 14 12 15 17 16 17 20 24 29 33 36 41 46 51 55 57 58 58 58 60 62 63 63 62 61 61 60 60 58 58 60 59 54
49 52 53 50 49 41 33 22 25 29 32 31 21 18 16 13 13 16 15 16 16 20 25 28 33 39 44 49 54 58 59 59 61 63 66 67 67 67 66 63 61 60 57 57 57 56 57 60 59
49 51 50 48 46 39 32 23 27 29 29 19 16 14 12 13 14 15 15 15 19 25 27 34 40 44 49 56 61 61 61 64 67 68 69 70 70 67 64 59 56 52 50 51 53 55 55 58 60
Wind_Direction
288 288 286 282 280 281 283 285 281 278 281 280 271 279 286 285 289 287 283 281 272 270 268 269 270 270 270 268 266 265 264 264 262 259 260 259 258 257 256 256 253 252 251 249 246 245 245 247 245
295 289 291 295 296 290 291 289 286 292 287 288 271 275 282 283 286 285 283 281 283 277 275 273 271 269 266 268 268 267 265 264 263 260 257 256 256 255 254 254 253 253 252 249 249 248 247 246 248
287 284 282 286 288 287 289 291 292 289 287 281 280 278 276 277 280 278 279 282 283 285 281 276 275 272 271 270 269 268 266 265 264 261 259 257 256 255 254 253 252 252 253 253 251 250 250 250 250
298 290 289 288 287 289 288 295 294 300 283 289 293 296 292 283 282 272 272 274 285 285 285 283 280 277 271 269 269 268 267 266 266 265 262 258 256 255 254 253 253 253 253 254 254 253 252 251 250
305 301 297 290 293 283 281 284 292 302 290 293 297 294 289 285 282 271 274 288 290 291 290 287 284 283 276 271 268 268 267 266 265 263 262 262 260 258 256 254 253 254 254 253 253 253 254 253 252
299 287 287 287 287 283 306 296 293 295 295 297 295 301 284 280 281 274 277 286 289 290 289 286 284 282 280 275 272 270 268 265 264 263 263 263 262 260 259 257 256 257 256 254 253 254 253 252 252
308 298 300 297 296 298 302 298 293 287 290 294 293 291 288 284 282 286 283 283 284 286 287 287 282 279 276 275 275 276 277 272 267 264 262 263 262 262 261 260 257 256 255 255 255 255 256 253 252
310 299 297 297 300 298 299 302 303 299 303 304 289 283 280 278 281 282 282 285 286 287 287 287 284 280 277 276 275 275 278 277 274 269 265 264 262 262 261 258 257 257 257 257 256 256 255 254 253
309 308 305 306 292 295 310 308 306 302 302 295 287 287 284 279 278 278 281 282 282 284 285 284 284 281 280 279 279 279 279 278 275 273 270 267 266 265 263 259 257 257 256 257 256 256 256 254 253
306 308 310 303 295 304 309 308 308 303 300 290 281 277 278 281 282 282 283 283 283 285 285 283 283 282 282 282 281 280 279 278 276 275 273 271 269 267 264 262 259 258 257 256 257 256 255 254 253
307 308 303 304 307 302 305 306 309 303 299 295 290 288 285 285 285 284 284 284 285 285 284 284 283 283 284 283 282 280 279 278 276 274 273 273 271 268 267 264 261 258 256 256 255 255 254 252 252
311 311 309 304 301 305 311 307 304 302 297 295 294 289 286 286 285 285 285 286 286 285 286 286 285 284 284 284 284 282 281 279 278 277 275 272 271 270 268 265 263 261 258 256 255 254 253 252 252
312 313 308 301 302 307 305 304 303 298 294 292 292 290 288 286 287 287 287 288 287 286 288 288 284 284 282 283 282 282 281 280 280 279 277 275 273 270 269 266 263 262 259 255 254 253 252 251 249
314 309 302 303 305 308 303 302 300 297 294 294 293 293 292 290 289 290 290 288 289 292 293 287 286 287 286 285 284 283 282 282 280 280 279 276 273 272 271 267 263 261 259 256 254 253 251 249 249
309 303 309 308 308 307 302 304 303 299 293 293 293 295 296 295 297 296 295 294 294 292 285 283 287 287 286 284 283 283 283 281 280 277 276 276 275 272 270 268 266 262 260 258 255 253 252 250 248
305 308 309 309 308 305 298 299 299 300 298 292 291 290 291 294 295 295 295 293 291 289 288 284 285 285 284 284 284 283 282 281 279 279 277 275 274 272 270 268 265 262 261 260 259 256 252 251 251
312 313 312 310 309 306 300 302 302 302 300 299 298 297 295 296 295 293 291 292 291 290 288 287 286 286 285 284 284 283 283 283 283 281 278 276 274 272 271 269 267 263 261 261 259 256 255 253 252
315 313 315 313 313 308 307 309 310 308 304 302 298 298 298 297 294 293 293 294 295 294 293 292 291 289 288 287 287 287 288 286 283 282 282 279 277 274 271 271 271 270 265 258 257 257 255 253 252
314 317 316 313 316 311 311 312 314 309 304 304 301 298 296 294 293 292 295 297 297 296 295 294 293 292 293 294 292 290 290 290 288 288 285 283 281 278 273 269 269 270 269 265 257 253 253 253 252
315 319 318 315 313 308 309 310 314 309 305 302 296 294 294 291 290 296 299 299 298 298 295 294 297 299 300 298 295 294 291 288 285 284 281 279 280 278 275 270 267 266 266 264 261 256 252 252 251
318 317 314 314 314 310 307 312 311 307 305 305 300 300 301 298 300 300 299 298 298 302 305 305 305 303 302 300 299 298 297 296 297 296 295 293 292 294 294 289 281 276 271 265 258 255 253 252 251
317 315 313 314 312 306 303 311 308 305 306 301 307 308 300 296 302 304 303 304 312 313 311 309 310 308 305 306 307 307 311 315 310 317 313 305 299 296 293 290 288 284 282 280 274 265 258 252 250
318 318 316 314 310 306 304 304 304 302 303 301 302 300 301 310 310 310 316 319 319 315 313 312 311 314 315 314 326 331 328 322 317 310 303 294 289 284 283 281 276 274 276 275 269 268 268 265 260
317 314 313 311 311 310 309 310 305 304 309 312 315 315 317 312 322 324 320 320 319 319 317 322 328 336 339 336 330 323 308 301 297 293 292 288 286 283 281 277 273 268 265 262 265 261 257 258 261
314 315 315 316 314 318 318 317 317 322 324 321 317 316 322 332 325 320 325 326 326 336 351 359 356 352 345 332 320 314 314 309 305 301 296 292 287 284 281 278 274 271 269 268 265 263 258 254 252
313 313 314 318 321 330 328 326 326 329 331 323 327 332 333 329 324 328 330 338 1 14 11 10 359 345 338 335 329 323 317 312 306 301 297 292 288 285 283 278 275 271 265 264 262 262 263 258 254
313 316 321 324 332 338 334 329 337 341 332 336 337 337 335 333 335 343 0 38 35 26 10 357 350 346 340 334 328 322 318 314 309 303 299 294 289 286 282 279 277 274 269 262 255 255 257 256 252
317 321 325 331 338 341 338 336 339 340 338 335 334 336 344 345 358 39 54 50 30 18 8 0 351 342 335 330 326 321 316 312 308 305 301 298 293 290 287 284 280 275 271 266 258 248 248 251 249
318 321 326 333 337 338 337 334 339 337 335 333 339 349 3 24 59 65 55 35 21 9 359 350 344 341 336 329 325 321 318 315 312 309 305 302 299 296 293 289 283 277 270 263 258 252 243 242 243
317 320 327 331 334 334 331 334 335 336 337 343 355 17 52 75 68 62 34 19 10 1 351 348 344 339 334 330 328 326 322 318 312 308 304 301 297 295 291 287 281 274 266 258 253 248 242 237 236
Height
10825 10824 10823 10822 10819 10813 10800 10805 10796 10814 10812 10809 10803 10798 10800 10793 10792 10803 10801 10795 10796 10792 10790 10788 10786 10785 10784 10783 10784 10785 10786 10787 10788 10789 10790 10790 10791 10792 10794 10795 10797 10798 10800 10802 10804 10806 10807 10810 10814
10819 10818 10816 10815 10809 10803 10795 10798 10791 10800 10800 10800 10799 10795 10790 10784 10787 10783 10786 10786 10783 10781 10779 10777 10774 10773 10771 10769 10771 10771 10772 10773 10774 10776 10777 10777 10778 10779 10781 10782 10784 10786 10788 10790 10792 10793 10795 10797 10800
10812 10810 10810 10806 10802 10794 10786 10789 10789 10796 10786 10788 10789 10788 10785 10779 10778 10777 10774 10774 10770 10770 10769 10765 10762 10760 10757 10757 10756 10755 10756 10757 10759 10761 10762 10763 10764 10765 10766 10768 10770 10772 10774 10776 10778 10780 10782 10784 10787
10806 10804 10804 10798 10793 10790 10781 10779 10787 10775 10773 10782 10779 10777 10772 10767 10771 10767 10763 10763 10758 10759 10757 10754 10749 10746 10744 10742 10739 10738 10739 10742 10742 10742 10745 10745 10747 10748 10750 10752 10755 10757 10760 10762 10764 10765 10767 10770 10773
10801 10799 10794 10789 10784 10777 10778 10776 10774 10767 10757 10775 10778 10767 10761 10751 10757 10754 10754 10751 10743 10742 10741 10737 10733 10730 10728 10725 10722 10722 10723 10725 10724 10725 10725 10727 10728 10729 10731 10734 10736 10738 10740 10742 10746 10748 10750 10754 10757
10795 10792 10787 10782 10773 10762 10775 10771 10764 10759 10741 10750 10767 10764 10750 10738 10740 10743 10747 10735 10732 10730 10726 10721 10718 10715 10712 10708 10706 10705 10705 10706 10705 10707 10707 10708 10710 10710 10711 10714 10716 10718 10721 10723 10726 10728 10731 10734 10738
10789 10785 10779 10773 10767 10759 10763 10762 10756 10750 10740 10738 10750 10745 10740 10729 10726 10735 10733 10723 10715 10716 10711 10707 10702 10697 10693 10691 10689 10687 10686 10686 10687 10687 10687 10688 10689 10690 10692 10694 10695 10698 10700 10702 10704 10707 10710 10714 10718
10782 10777 10770 10765 10759 10752 10749 10747 10742 10738 10738 10729 10725 10726 10722 10716 10721 10717 10717 10712 10701 10698 10696 10691 10685 10679 10675 10673 10671 10669 10666 10665 10665 10665 10666 10666 10666 10668 10670 10671 10673 10676 10679 10682 10685 10687 10689 10692 10695
10774 10768 10758 10751 10749 10745 10735 10729 10727 10734 10726 10719 10710 10710 10701 10695 10701 10699 10700 10695 10687 10684 10679 10673 10667 10661 10656 10653 10653 10651 10648 10645 10645 10644 10643 10644 10645 10644 10645 10647 10651 10653 10656 10658 10662 10666 10668 10669 10674
10765 10758 10751 10743 10740 10738 10720 10715 10712 10706 10706 10704 10702 10699 10689 10678 10680 10683 10682 10675 10670 10670 10662 10655 10649 10645 10641 10637 10636 10634 10631 10628 10626 10625 10623 10625 10625 10622 10624 10626 10626 10629 10632 10635 10639 10643 10645 10646 10652
10753 10748 10741 10731 10729 10724 10715 10706 10698 10690 10684 10675 10687 10682 10670 10663 10662 10665 10663 10655 10653 10651 10646 10636 10633 10630 10624 10622 10619 10617 10614 10610 10608 10607 10606 10605 10603 10604 10603 10605 10606 10607 10610 10609 10612 10615 10618 10622 10628
10743 10737 10731 10722 10720 10710 10697 10695 10692 10682 10670 10661 10659 10667 10660 10648 10644 10646 10645 10641 10637 10633 10629 10618 10613 10615 10607 10604 10601 10598 10595 10593 10590 10588 10588 10586 10585 10584 10585 10585 10584 10584 10586 10587 10590 10594 10597 10599 10604
10731 10727 10720 10711 10706 10700 10684 10685 10684 10673 10661 10650 10643 10641 10640 10636 10629 10627 10629 10626 10620 10618 10615 10602 10592 10598 10593 10588 10585 10581 10578 10575 10571 10569 10566 10564 10563 10563 10562 10563 10563 10561 10562 10565 10566 10570 10573 10576 10581
10719 10713 10706 10696 10692 10687 10668 10673 10673 10665 10648 10638 10628 10623 10622 10616 10611 10607 10614 10608 10605 10602 10599 10584 10567 10580 10574 10571 10566 10564 10560 10554 10552 10546 10541 10540 10541 10540 10538 10537 10537 10538 10540 10541 10543 10545 10550 10553 10556
10708 10697 10690 10683 10675 10668 10652 10656 10654 10652 10640 10629 10620 10612 10599 10596 10596 10587 10587 10587 10589 10587 10580 10567 10560 10558 10555 10552 10546 10544 10539 10535 10529 10528 10524 10517 10515 10516 10515 10512 10511 10511 10513 10516 10519 10523 10525 10529 10534
10701 10683 10673 10669 10664 10652 10642 10650 10646 10640 10625 10609 10610 10611 10600 10584 10582 10575 10567 10563 10564 10563 10559 10553 10549 10539 10534 10532 10526 10521 10517 10512 10508 10505 10502 10500 10495 10492 10491 10488 10486 10486 10489 10493 10495 10498 10502 10507 10511
10690 10671 10651 10658 10650 10631 10618 10632 10633 10626 10612 10599 10591 10587 10583 10580 10568 10557 10551 10547 10543 10542 10535 10531 10529 10521 10517 10512 10507 10501 10497 10491 10486 10482 10480 10479 10476 10472 10468 10464 10462 10466 10469 10470 10471 10474 10477 10483 10489
10674 10667 10645 10620 10631 10613 10602 10606 10613 10607 10595 10590 10574 10569 10566 10563 10555 10542 10535 10532 10526 10521 10514 10509 10508 10502 10496 10492 10487 10482 10478 10473 10467 10462 10459 10457 10456 10455 10453 10448 10443 10443 10447 10450 10452 10453 10457 10460 10466
10662 10651 10639 10615 10607 10591 10589 10589 10593 10590 10581 10576 10564 10555 10549 10546 10538 10530 10523 10517 10513 10507 10502 10494 10488 10484 10481 10477 10471 10465 10461 10457 10451 10448 10445 10442 10439 10438 10436 10433 10431 10428 10426 10428 10433 10436 10437 10441 10445
10651 10641 10630 10609 10601 10583 10579 10574 10574 10571 10566 10562 10556 10545 10539 10533 10525 10518 10512 10506 10501 10496 10489 10483 10479 10473 10467 10463 10458 10454 10449 10443 10438 10434 10429 10425 10423 10419 10417 10415 10414 10413 10411 10412 10414 10417 10420 10423 10427
10636 10634 10622 10613 10593 10562 10560 10564 10563 10555 10549 10541 10538 10532 10524 10518 10514 10509 10503 10496 10488 10482 10476 10471 10467 10463 10458 10452 10446 10440 10435 10430 10425 10420 10417 10414 10411 10407 10405 10402 10401 10400 10398 10398 10398 10400 10403 10407 10410
10630 10617 10614 10606 10596 10583 10541 10544 10542 10537 10535 10526 10520 10517 10513 10512 10504 10496 10489 10483 10478 10473 10468 10462 10458 10453 10447 10441 10435 10431 10427 10422 10417 10413 10409 10405 10402 10400 10398 10395 10394 10393 10391 10389 10388 10389 10390 10392 10395
10619 10610 10601 10593 10585 10574 10556 10542 10536 10523 10523 10518 10512 10507 10502 10497 10492 10487 10481 10476 10471 10466 10460 10454 10450 10445 10440 10436 10431 10426 10421 10416 10411 10405 10401 10397 10393 10390 10388 10387 10386 10384 10382 10381 10381 10381 10381 10381 10383
10608 10601 10595 10586 10575 10562 10546 10537 10527 10518 10512 10505 10500 10495 10490 10488 10483 10480 10477 10473 10466 10460 10454 10448 10444 10441 10436 10431 10426 10421 10415 10410 10404 10398 10393 10388 10383 10379 10377 10374 10373 10372 10371 10371 10370 10371 10373 10373 10374
10599 10590 10583 10576 10561 10551 10535 10524 10516 10509 10503 10501 10497 10492 10488 10481 10479 10477 10473 10467 10461 10455 10451 10447 10442 10438 10433 10428 10422 10416 10410 10404 10397 10390 10383 10377 10371 10365 10361 10358 10357 10356 10355 10355 10355 10356 10359 10361 10364
10591 10585 10578 10567 10554 10542 10525 10518 10513 10507 10504 10501 10495 10488 10482 10478 10475 10471 10466 10462 10458 10454 10451 10446 10442 10437 10431 10425 10417 10409 10401 10393 10384 10375 10368 10361 10355 10349 10344 10340 10337 10337 10339 10339 10339 10339 10342 10346 10350
10578 10572 10566 10556 10546 10535 10525 10516 10508 10505 10502 10495 10488 10483 10478 10473 10469 10466 10464 10461 10459 10456 10451 10446 10441 10435 10427 10418 10409 10399 10389 10379 10368 10358 10349 10341 10334 10328 10322 10318 10314 10312 10313 10317 10322 10323 10323 10329 10335
10571 10564 10557 10549 10540 10534 10524 10518 10512 10505 10498 10492 10487 10482 10477 10472 10468 10466 10465 10463 10460 10456 10451 10445 10438 10430 10422 10412 10401 10389 10377 10364 10352 10341 10330 10320 10310 10302 10296 10291 10289 10287 10287 10289 10294 10301 10305 10309 10317
10567 10558 10551 10545 10536 10530 10524 10518 10512 10505 10499 10493 10487 10481 10476 10473 10471 10469 10467 10465 10461 10456 10450 10443 10435 10426 10416 10404 10392 10377 10363 10348 10333 10319 10306 10294 10283 10275 10268 10264 10260 10259 10260 10262 10267 10274 10283 10289 10296
10560 10552 10546 10541 10534 10527 10521 10515 10511 10505 10499 10492 10486 10481 10479 10477 10474 10472 10470 10465 10461 10456 10449 10441 10432 10422 10410 10395 10380 10364 10347 10331 10315 10299 10285 10272 10261 10251 10243 10237 10234 10232 10233 10236 10240 10247 10257 10267 10277